Home > Weather > Wittenberge > Past weeks

Flag for Germany Weather for the Past 2 Weeks in Wittenberge, Mecklenburg-Western Pomerania, Germany

Now
46 °F

Drizzle. Fog.


Feels Like: 42 °F
Forecast: 41 / 51 °F
Wind: 9 mph from Southwest

Location: Fassberg

Current Time: Feb 5, 2016 at 11:59:30 PM

Latest Report: Feb 5, 2016 at 10:20 PM


Visibility: 2 mi

Pressure: 30.07 "Hg

Humidity: 93%

Dew point: 45 °F

Location of WittenbergeLocation

Historic Weather in Wittenberge — Graph

°F

Wittenberge Temperature Yesterday

Maximum temperature yesterday: 39 °F (at 11:20 AM)
Minimum temperature yesterday: 36 °F (at 12:20 AM)
Average temperature yesterday: 37 °F

High & Low Weather Summary for the Past Weeks

 TemperatureHumidityPressure
High54 °F (Jan 27, 7:20 PM)100% (Jan 23, 7:20 AM)30.48 "Hg (Jan 23, 7:20 AM)
Low7 °F (Jan 22, 6:20 AM)57% (Jan 28, 2:20 PM)29.53 "Hg (Jan 30, 4:20 PM)
Average41 °F86%30.02 "Hg
* Reported Jan 21 10:46 PM — Feb 5 10:20 PM, Wittenberge, Weather by CustomWeather, © 2016

Note: Actual official high and low records may vary slightly from our data, if they occured in-between our weather recording intervals... More about our weather records

Advertising

Wittenberge Weather History for the Previous 24 Hours

 ConditionsComfort  
Time TempWeatherWind HumidityBarometerVisibility
10:20 PM
Fri, Feb 5
46 °FDrizzle. Fog.9 mph93%30.07 "Hg2 mi
9:20 PM46 °FDrizzle. Fog.9 mph93%30.07 "Hg2 mi
8:20 PM45 °FFog.9 mph100%30.07 "Hg2 mi
7:20 PM45 °FDrizzle. Fog.10 mph93%30.09 "Hg1 mi
6:20 PM45 °FFog.9 mph93%30.09 "Hg2 mi
5:20 PM45 °FFog.13 mph93%30.07 "Hg2 mi
4:20 PM43 °FFog.10 mph93%30.07 "Hg1 mi
3:20 PM41 °FDrizzle. Fog.10 mph93%30.09 "Hg2 mi
2:20 PM39 °FDrizzle. Fog.10 mph100%30.09 "Hg2 mi
1:20 PM39 °FDrizzle. Fog.14 mph93%30.12 "Hg3 mi
12:20 PM39 °FDrizzle. Broken clouds.10 mph93%30.15 "Hg4 mi
11:20 AM39 °FDrizzle. Broken clouds.9 mph87%30.18 "Hg4 mi
10:20 AM39 °FMore clouds than sun.10 mph87%30.18 "Hg4 mi
9:20 AM37 °FPartly sunny.9 mph93%30.21 "Hg4 mi
9:03 AM37 °FFog.8 mph93%30.21 "Hg3 mi
8:20 AM37 °FFog.8 mph93%30.21 "Hg2 mi
7:20 AM37 °FFog.8 mph93%30.21 "Hg2 mi
6:47 AM36 °FFog.10 mph100%30.21 "Hg2 mi
6:20 AM36 °FDrizzle. Fog.7 mph100%30.21 "Hg2 mi
5:20 AM36 °FFog.7 mph93%30.21 "Hg1 mi
4:20 AM36 °FFog.6 mph93%30.21 "Hg2 mi
3:20 AM34 °FFog.5 mph100%30.21 "Hg1 mi
2:58 AM34 °FFog.6 mph100%30.21 "Hg1 mi
2:20 AM34 °FFog.7 mph100%30.21 "Hg2 mi
1:20 AM36 °FFog.5 mph93%30.21 "Hg2 mi
12:20 AM36 °FFog.5 mph100%30.18 "Hg3 mi
11:20 PM
Thu, Feb 4
36 °FPassing clouds.6 mph93%30.15 "Hg4 mi
Weather by CustomWeather, © 2016

See weather overviewHow to use our weather pages